FALCON HEAVY R/B, 44345

Orbit data source: Space-Track

FALCON HEAVY R/B, 44345 is space debris originally from a launch on Tue, 25 Jun 2019 UTC launched from the Air Force Eastern Test Range (AFETR). Debris objects in space refer to the collection of defunct objects orbiting the Earth. Examples of debris include non-operational satellites, rocket bodies, and fragments generated from explosions, collisions, or faulty payload assembly.

Loading next visibility...
Identifier
44345, 2019-036G
Orbit
Active
Country
Flag of USUS
Related business
Manufacturer
SpaceX
Mission
Spacecraft
Bus & Motor
F9ST2, Unknown motor
Mass
~4,000 kg wet, ~4,000 kg dry
Launch date (UTC)
2019-06-25 (6 years ago)
Launch vehicle
Unknown
Launch site
Air Force Eastern Test Range (AFETR)
Object type
Payload
Rocket body
Debris
Shape & HBR
Cyl, Unknown HBR
Radar Cross Section
49.816 m², Large (>1 m²)

Expand to show TLE details & history
Last TLE update: 1 day ago

TLE from 1 day ago
0 FALCON HEAVY R/B
1 44345U 19036G   25258.38495722 -.00000057  00000-0  00000-0 0  9994
2 44345  42.3264  11.3417 2161112 353.5733   4.0588  4.69266096106744
Epoch: 2025-09-15T09:14Z
TLE epoch observation values (Epoch: 2025-09-15T09:14:20.303Z)
Latitude
0.00004°
Longitude
-121.83739°
Altitude
5,446.359 km
Speed
6.401 km/s
True Right ascension
00h 45m 21s
True Declination
0° 00' 00"
Sunlit
Object was in full shadow at epoch
Visualization orbit readout
Latitude
Unknown
Longitude
Unknown
Altitude
Unknown
Speed
Unknown
Apparent Right ascension
Unknown
Apparent Declination
Unknown
Sunlit
N/A
Visualization observer readout
Local Sidereal Time
10:25:56
Azimuth
Unknown
Elevation
Unknown
Doppler factor
Unknown
Orbital elements
Apogee altitude
11,950.277 km
Perigee altitude
5,436.11 km
Semi-major axis
15,071.331 km
Eccentricity
0.21611
Inclination
42.3264°
RAAN
11.3417°
Arg. of periapsis
353.5733°
True anomaly
6.44432°
Mean anomaly
4.0588°
Eccentric anomaly
5.17584°
Mean motion
1.17305 °/min
Orbital period
306.89 mins
BSTAR
0
Loading maneuver chart data...
Computing Atmospheric mass density...
Loading historical data...
Loading historical data...
Loading historical data...
Loading historical data...
Loading historical data...
Loading historical data...
Loading historical data...

Documentation

Showing up to 5 results
|